Content
SEND FEEDBACK

Daily
Averages
Monthly
Summary
United States of America

MAURICEVILLE, TEXAS


Home > North America > United States > Texas
Elevation: 20 feet     Latitude: 30 14N     Longitude: 093 44W

WEATHER
 
SELECT A DAY
Number of Records: 108,109;   Date Range: 8/25/05 - 7/27/14
 
SHARE

PRINT THIS DATA

[ ← Previous Day ]
WEATHER ALMANAC - MARCH 31, 2013
[ Next Day → ]
[ °C ]   °F
Weather ElementAverageHighLow
Temperature66.2 °F77.4 °F (2:15 pm)59.4 °F (5:15 pm)
Dewpoint63.2 °F67.6 °F (1:55 pm)56.3 °F (3:15 pm)
Humidity90.4 %98 % (5:15 am)67 % (2:35 pm)
Barometer29.98 in30.02 in (12:35 am)29.90 in (7:55 pm)
Wind Speed5.2 mph17.3 mph (3:15 pm)
Wind Gust32.2 mph (3:15 pm)
Weather ElementAverage
Visibility6.8 mi
Wind DirectionENE (66.6 °)

Weather ElementTotal
Precipitation0.91 in
Cooling Degree Days3.4 (Base 65)
Growing Degree Days18.4 (Base 50)
Averaged from 68 records on March 31, 2013
WEATHER CONDITIONS BREAKOUT
WIND DIRECTION BREAKOUT
WEATHER BY HOUR - MARCH 31, 2013
[ °C ]   °F
Local TimeTemperatureDewpointHumidityBarometerVisibilityWind DirectionWind SpeedGust SpeedPrecipitationEventsConditions
12:35 AM65.5 °F63.9 °F94 %30.02 in7.0 miCalmOvercast
12:55 AM64.9 °F63.5 °F95 %30.02 in7.0 miCalmOvercast
1:15 AM64.4 °F63.1 °F96 %30.02 in7.0 miCalmOvercast
1:35 AM64.2 °F63.1 °F96 %30.02 in5.0 miCalmMostly Cloudy
1:55 AM64.8 °F63.7 °F96 %30.01 in7.0 miCalmOvercast
2:15 AM65.3 °F64.0 °F96 %30.01 in7.0 miCalmOvercast
2:35 AM65.7 °F64.4 °F96 %30.01 in7.0 miCalmOvercast
2:55 AM66.0 °F64.4 °F94 %30.01 in7.0 miCalmOvercast
3:15 AM66.0 °F64.4 °F94 %30.00 in7.0 miCalmOvercast
3:35 AM65.8 °F64.4 °F95 %29.99 in7.0 miCalmOvercast
3:55 AM65.3 °F64.2 °F96 %29.99 in7.0 miCalmOvercast
4:15 AM64.8 °F63.5 °F96 %29.98 in7.0 miCalmOvercast
4:35 AM64.0 °F63.0 °F96 %29.98 in4.0 miCalmOvercast
4:55 AM63.5 °F62.6 °F97 %29.98 in0.5 miCalmFogFog
5:15 AM63.1 °F62.6 °F98 %29.97 in1.2 miCalmOvercast
5:35 AM64.8 °F64.2 °F98 %29.98 in5.0 miCalmOvercast
5:55 AM65.3 °F64.4 °F97 %29.98 in5.0 miCalmOvercast
6:15 AM65.3 °F64.4 °F97 %29.98 in5.0 miCalmOvercast
6:35 AM65.3 °F64.4 °F97 %29.98 in4.0 miCalmOvercast
6:55 AM65.3 °F64.4 °F97 %29.98 in4.0 miCalmOvercast
7:15 AM65.5 °F64.6 °F97 %29.99 in2.0 miCalmOvercast
7:35 AM65.7 °F64.8 °F97 %29.99 in1.8 miCalmOvercast
7:55 AM65.8 °F64.9 °F97 %29.99 in2.0 miCalmOvercast
8:15 AM66.2 °F65.3 °F97 %30.00 in0.2 miCalmFogFog
8:35 AM66.2 °F65.5 °F98 %30.00 in0.5 miCalmFogFog
8:55 AM66.6 °F65.8 °F98 %29.98 in0.8 miCalmOvercast
9:15 AM66.6 °F65.8 °F98 %29.98 in1.2 miCalmOvercast
9:35 AM67.5 °F66.6 °F97 %29.99 in7.0 miCalmOvercast
9:55 AM69.6 °F67.1 °F92 %29.97 in10.0 miSSE (160°)10.4 mphOvercast
10:15 AM71.6 °F67.1 °F86 %29.97 in10.0 miSouth (180°)11.5 mphMostly Cloudy
10:35 AM72.7 °F67.1 °F83 %29.98 in10.0 miSouth (170°)12.7 mph20.7 mphMostly Cloudy
10:55 AM72.7 °F67.3 °F83 %29.98 in10.0 miSouth (180°)10.4 mphOvercast
11:15 AM74.1 °F67.3 °F79 %29.98 in10.0 miSouth (190°)16.1 mphOvercast
11:35 AM72.5 °F66.9 °F83 %29.98 in10.0 miSouth (190°)13.8 mph19.6 mphOvercast
11:55 AM74.7 °F67.3 °F78 %29.98 in10.0 miSouth (170°)12.7 mph18.4 mphOvercast
12:15 PM73.2 °F67.1 °F81 %29.99 in10.0 miSouth (190°)9.2 mphOvercast
12:35 PM73.2 °F67.1 °F81 %29.99 in10.0 miSouth (180°)10.4 mphOvercast
12:55 PM73.9 °F66.6 °F78 %29.99 in10.0 miSouth (190°)11.5 mph19.6 mphOvercast
1:15 PM73.9 °F66.9 °F79 %29.98 in10.0 miSouth (180°)9.2 mphOvercast
1:35 PM75.6 °F67.1 °F75 %29.98 in10.0 miSouth (180°)10.4 mphOvercast
1:55 PM76.6 °F67.6 °F74 %29.96 in10.0 miSSE (160°)11.5 mph19.6 mphMostly Cloudy
2:15 PM77.4 °F67.1 °F71 %29.95 in10.0 miSouth (170°)13.8 mph21.9 mphClear
2:35 PM77.4 °F65.8 °F67 %29.96 in10.0 miSouth (190°)13.8 mph18.4 mphScattered Clouds
2:55 PM75.6 °F65.3 °F70 %29.96 in10.0 miSouth (190°)8.1 mphMostly Cloudy
3:15 PM66.4 °F56.3 °F70 %29.99 in10.0 miNNE (20°)17.3 mph32.2 mphOvercast
3:35 PM63.9 °F57.0 °F78 %30.00 in10.0 miNE (50°)13.8 mph17.3 mphRainLight Rain
3:55 PM60.8 °F57.9 °F90 %29.99 in5.0 miNNE (30°)13.8 mph0.04 inRain-ThunderstormThunderstorms and Rain
4:15 PM60.1 °F58.1 °F93 %30.00 in7.0 miNE (40°)3.5 mph0.02 inRain-ThunderstormLight Thunderstorms and Rain
4:35 PM60.1 °F58.1 °F93 %29.99 in7.0 miENE (60°)12.7 mph0.07 inRain-ThunderstormLight Thunderstorms and Rain
4:55 PM59.9 °F58.1 °F94 %29.99 in4.0 miEast (90°)12.7 mph0.15 inRain-ThunderstormThunderstorms and Rain
5:15 PM59.4 °F57.9 °F95 %29.97 in7.0 miESE (110°)11.5 mph0.05 inRain-ThunderstormThunderstorms and Rain
5:35 PM59.9 °F58.5 °F95 %29.92 in5.0 miESE (120°)15.0 mph0.12 inRain-ThunderstormRain
5:55 PM61.0 °F59.4 °F94 %29.96 in7.0 miCalm0.14 inRain-ThunderstormThunderstorms and Rain
6:15 PM61.2 °F59.5 °F94 %29.95 in5.0 miSSE (160°)3.5 mph0.06 inRain-ThunderstormThunderstorms and Rain
6:35 PM62.1 °F60.8 °F96 %29.95 in10.0 miSouth (170°)11.5 mph16.1 mph0.10 inRain-ThunderstormLight Thunderstorms and Rain
6:55 PM62.6 °F61.0 °F94 %29.91 in7.0 miSSE (160°)13.8 mph19.6 mph0.13 inRainLight Rain
7:15 PM63.1 °F61.0 °F93 %29.91 in10.0 miSSE (160°)10.4 mph17.3 mph0.01 inScattered Clouds
7:35 PM64.2 °F61.0 °F89 %29.91 in10.0 miSouth (170°)10.4 mph0.01 inScattered Clouds
7:55 PM64.4 °F61.3 °F90 %29.90 in10.0 miSSE (150°)11.5 mph17.3 mph0.01 inScattered Clouds
8:15 PM64.0 °F60.8 °F89 %29.90 in10.0 miSouth (170°)5.8 mphScattered Clouds
8:35 PM64.2 °F60.3 °F87 %29.90 in10.0 miCalmClear
9:15 PM64.2 °F60.3 °F87 %29.90 in10.0 miCalmClear
9:35 PM63.9 °F60.1 °F87 %29.92 in10.0 miCalmClear
10:15 PM61.2 °F59.5 °F94 %29.96 in10.0 miCalmClear
10:35 PM60.8 °F59.7 °F96 %29.97 in10.0 miCalmClear
11:15 PM59.9 °F59.2 °F97 %30.00 in0.8 miCalmOvercast
11:35 PM59.9 °F59.2 °F97 %30.00 in1.0 miCalmOvercast
11:55 PM59.9 °F59.2 °F97 %30.00 in0.8 miCalmOvercast
Hourly data recorded from KORG, located miles away from Mauriceville, Texas







STORIES FROM OUR PARTNERS